Temperature
16 16 17 17 20 21 20 20 19 18 17 15 15 16 17 17 17 16 11 12 12 12 12 11 12 12 12 12 12 12 12 12 13 13 13 13 13 13 13 13 13 13 13 13 14 14 14 14 14
16 16 17 18 20 21 20 20 18 18 16 13 13 14 15 14 12 11 11 11 11 11 11 11 11 11 11 12 12 12 12 12 12 12 12 12 13 13 13 13 13 13 13 13 13 14 14 14 14
16 16 17 19 20 21 20 19 18 15 13 13 13 13 14 13 10 10 11 11 11 11 11 11 11 11 11 11 12 12 12 12 12 12 12 12 12 12 12 12 13 13 13 13 13 13 13 13 13
16 16 17 19 19 19 19 18 16 15 13 12 13 13 11 10 10 10 11 11 10 10 10 10 10 11 11 11 11 11 11 11 11 12 12 12 12 12 12 12 12 12 12 12 13 13 13 13 13
16 17 19 18 18 18 17 16 15 16 15 13 13 14 11 9 10 10 10 10 10 10 10 10 10 10 10 11 11 11 11 11 11 11 11 11 11 12 12 12 12 12 12 12 12 12 12 12 13
16 18 19 19 18 17 16 15 15 16 15 13 12 13 11 9 10 10 10 10 10 10 10 10 10 10 10 10 11 11 11 10 10 11 11 11 11 11 11 11 11 11 11 11 11 12 12 12 12
17 18 18 19 18 17 16 14 14 15 15 13 12 13 10 9 10 10 10 10 10 10 10 9 9 10 10 10 10 10 10 10 10 10 10 11 11 11 11 11 11 11 11 11 11 11 11 11 12
15 17 17 17 17 17 15 13 12 14 14 11 11 13 11 9 9 9 9 9 9 9 9 9 9 9 9 9 10 10 10 10 10 10 10 10 10 10 10 10 10 10 10 11 11 11 11 11 11
14 17 17 17 17 17 14 13 11 10 10 9 9 10 9 9 9 9 8 8 8 9 9 9 9 9 9 9 9 9 9 9 9 9 9 10 9 9 9 10 10 10 10 10 10 10 10 10 10
15 17 17 16 16 16 13 13 11 10 11 9 8 8 8 9 8 8 8 8 8 8 8 8 8 9 8 9 9 9 9 9 9 9 9 9 9 9 9 9 9 9 9 9 10 10 10 10 10
14 15 15 14 13 13 12 12 10 12 12 11 10 8 8 8 7 7 7 8 8 8 8 8 8 8 8 8 8 8 8 8 8 8 8 8 8 9 8 9 9 9 9 9 9 9 9 9 9
13 13 13 12 11 11 11 11 10 10 12 10 9 9 8 7 7 7 7 7 7 7 7 8 7 7 7 7 8 8 8 8 8 8 8 8 8 8 8 8 8 8 8 8 8 8 8 8 8
13 12 11 10 9 9 10 10 10 9 9 9 9 8 8 7 7 7 7 7 7 7 7 7 7 7 7 7 7 7 7 7 7 7 7 7 7 7 7 7 7 7 7 7 8 8 8 8 8
12 11 10 10 9 9 9 9 9 9 8 8 7 7 7 7 6 6 6 6 6 6 6 6 6 6 6 6 6 6 6 7 7 7 7 7 7 7 7 7 7 7 7 7 7 7 7 7 7
10 11 11 10 10 9 9 11 10 9 8 7 7 7 6 6 6 6 6 6 6 6 6 6 6 6 6 6 6 6 6 6 6 6 6 6 6 6 6 6 6 6 6 6 6 6 6 6 6
11 12 13 12 10 9 10 13 12 8 7 7 6 6 6 5 5 6 6 6 6 5 6 5 5 5 5 5 5 5 5 5 5 5 5 5 5 5 5 5 5 5 5 5 5 5 5 5 6
12 13 14 12 10 9 10 13 11 7 7 7 7 6 5 5 5 5 5 5 5 5 5 5 5 5 5 5 5 5 5 5 5 5 5 5 5 4 4 4 4 4 4 4 4 4 4 5 5
14 14 13 13 11 9 10 11 10 7 6 7 7 6 5 5 5 5 5 4 4 4 4 4 4 4 4 4 4 4 4 4 4 4 4 4 4 4 4 4 4 4 3 4 4 4 4 4 4
13 13 13 12 10 9 10 10 10 9 7 7 7 6 5 5 4 4 4 4 4 4 4 4 4 4 4 4 3 3 3 3 3 3 3 3 3 3 3 3 3 3 3 3 3 3 3 3 3
11 11 12 11 8 9 9 10 10 9 8 7 7 6 5 4 3 3 3 3 3 3 3 3 3 3 3 3 3 3 3 3 3 3 3 3 3 3 2 2 2 2 2 2 2 2 2 2 2
10 11 11 10 8 7 8 10 10 9 7 6 5 5 4 4 3 3 3 3 3 3 3 3 3 3 3 3 3 3 2 2 2 2 2 2 2 2 2 2 2 2 1 1 1 1 1 1 1
10 10 9 8 9 10 9 11 12 10 8 7 5 5 4 3 3 3 3 3 3 3 3 3 2 2 2 2 2 2 2 2 2 2 2 1 1 1 1 1 1 1 1 1 1 1 1 0 0
9 8 8 8 8 9 9 9 12 9 8 8 7 5 4 3 3 2 3 3 3 2 2 2 2 2 2 2 2 1 1 1 1 1 1 1 1 1 1 1 1 1 0 0 0 0 -0 -0 -0
7 7 7 7 8 8 10 9 11 10 8 8 7 5 4 3 2 2 2 2 2 2 2 2 1 1 1 1 1 1 1 1 1 1 1 0 0 0 -0 -0 -0 -0 -0 -0 -0 -0 -1 -1 -1
7 8 9 9 8 10 8 8 9 8 7 6 6 4 3 2 2 1 1 1 1 1 1 1 1 1 1 1 0 0 0 0 1 0 0 0 -0 -0 -0 -1 -1 -1 -1 -1 -1 -1 -1 -1 -2
7 8 9 9 10 10 7 8 9 6 4 4 3 3 2 2 1 1 1 1 1 1 1 1 1 0 0 0 0 0 -0 -0 -0 -0 -0 -0 -1 -1 -1 -1 -1 -1 -1 -1 -2 -2 -2 -2 -2
6 7 7 8 7 8 9 8 7 5 4 3 2 2 1 1 1 1 0 0 0 1 1 1 0 0 -0 -0 -1 -1 -1 -1 -1 -1 -1 -1 -1 -1 -1 -2 -2 -2 -2 -2 -2 -2 -2 -2 -2
6 6 6 7 7 8 9 9 8 6 5 4 2 1 1 0 -0 0 -0 -0 -0 -0 -0 -0 -0 -1 -1 -1 -1 -1 -1 -1 -1 -1 -1 -1 -2 -2 -2 -2 -2 -2 -3 -3 -3 -3 -3 -3 -3
4 5 6 7 7 7 8 9 6 5 4 4 3 1 -0 -1 -1 -1 -1 -1 -1 -1 -1 -1 -1 -1 -2 -2 -2 -2 -2 -2 -2 -2 -2 -2 -2 -2 -3 -3 -3 -3 -3 -3 -3 -3 -3 -4 -4
4 5 5 6 6 6 7 8 3 3 2 2 1 -1 -1 -1 -1 -2 -2 -2 -2 -2 -2 -2 -2 -2 -2 -2 -2 -2 -2 -2 -2 -3 -3 -3 -3 -3 -3 -3 -3 -3 -3 -3 -4 -4 -4 -4 -4
Wind_Speed
1 1 2 3 4 5 9 6 5 5 4 2 2 3 3 3 1 1 4 4 4 4 3 3 3 5 7 8 9 10 10 11 11 12 13 13 13 13 14 14 14 14 14 14 14 14 15 15 15
1 1 3 3 6 9 7 7 8 5 4 5 3 2 2 2 2 3 3 3 4 4 4 4 5 6 8 9 9 10 10 11 12 12 13 13 13 14 14 14 14 14 14 14 14 14 14 14 14
2 1 3 4 6 9 6 5 6 4 5 4 4 1 1 1 2 3 3 4 5 5 4 5 6 8 9 9 10 10 11 11 12 13 13 13 14 14 14 14 14 14 14 13 13 13 14 14 14
3 3 3 6 10 8 5 4 6 7 5 3 4 4 2 2 1 2 4 5 6 5 5 6 7 8 9 10 11 11 11 12 12 13 13 14 14 14 15 14 14 14 14 13 13 13 13 14 14
2 4 6 8 10 7 5 4 7 7 6 5 5 4 4 3 3 4 5 6 6 6 5 6 8 8 9 10 11 11 11 12 12 13 13 13 13 14 14 14 14 14 14 14 13 13 13 13 13
3 4 7 11 11 7 6 6 7 7 6 5 6 5 4 4 4 5 6 6 6 6 5 6 8 9 10 10 11 11 12 12 12 13 13 13 13 14 14 14 14 14 14 14 14 13 13 13 13
4 4 7 9 8 8 6 6 7 8 8 6 5 5 5 5 5 6 6 6 6 6 6 6 7 8 9 10 10 11 11 11 12 12 12 13 13 14 14 14 14 14 14 14 13 13 13 12 13
3 3 6 7 9 8 6 6 4 6 6 3 4 6 4 6 7 7 7 6 6 6 6 6 6 7 8 8 9 10 11 11 11 12 12 12 12 13 13 13 13 13 13 13 13 13 12 12 12
3 6 9 9 8 5 7 6 4 1 4 3 3 1 3 9 10 9 7 6 5 5 4 5 6 6 7 7 8 9 10 10 10 10 10 10 9 9 10 12 13 13 12 12 12 12 11 10 10
5 8 10 5 5 4 7 7 6 6 6 5 4 3 6 10 11 10 9 8 7 6 5 4 5 6 6 6 6 6 6 7 7 7 7 7 7 8 8 11 12 12 11 11 11 10 9 7 6
5 8 6 5 4 4 6 6 6 7 7 8 8 9 11 11 11 11 10 9 8 7 5 4 5 5 5 5 5 5 5 5 6 6 6 6 6 6 7 6 7 8 8 8 8 8 8 7 7
5 6 5 4 4 5 6 6 6 9 7 2 5 8 12 13 12 12 11 9 8 7 6 5 5 5 5 5 5 5 4 4 5 5 5 5 5 5 5 5 6 6 6 6 6 6 7 6 6
8 6 4 4 3 4 5 7 7 8 7 3 5 9 12 13 12 11 9 8 8 7 6 5 5 5 5 5 5 4 4 4 5 5 5 5 5 4 5 5 5 5 5 5 5 5 6 5 5
4 5 4 4 5 5 6 7 7 10 7 7 8 10 11 12 12 10 10 9 8 8 7 6 6 6 6 5 4 4 4 5 5 5 5 5 5 5 4 4 5 5 5 5 5 5 5 5 5
3 4 6 6 6 5 5 9 11 9 8 9 9 10 11 11 11 11 11 10 9 8 7 7 6 6 6 5 5 4 4 5 5 5 5 6 5 5 4 4 4 4 4 4 4 5 4 4 4
4 6 8 7 6 6 8 13 7 8 10 10 10 10 10 10 11 10 10 9 9 8 8 7 6 6 6 5 5 4 4 5 5 5 5 5 5 5 4 4 4 4 4 4 4 3 3 3 3
7 9 11 7 6 6 9 12 5 7 10 10 10 10 10 10 10 10 10 10 9 9 9 8 7 7 6 5 5 5 5 5 5 5 5 5 5 4 4 4 3 3 3 4 3 3 3 3 4
9 10 10 10 6 7 11 14 9 8 10 11 10 10 10 11 11 10 9 9 9 9 9 9 8 7 7 5 5 4 4 4 4 4 4 4 4 4 4 3 3 3 3 3 3 3 3 2 3
9 11 13 9 5 8 13 16 14 10 11 12 12 11 11 11 9 9 9 9 9 9 9 9 9 8 7 5 4 4 3 3 3 3 4 4 3 3 3 3 2 2 2 2 3 2 2 2 3
10 12 13 7 4 7 11 15 14 11 13 12 12 12 11 10 9 9 9 10 10 10 10 10 9 8 7 5 5 3 4 3 3 3 3 3 3 3 2 2 2 2 1 2 2 2 1 2 2
12 14 12 9 4 5 7 11 11 8 9 9 9 10 9 10 11 11 10 10 10 10 11 9 10 9 8 6 5 4 3 3 3 2 2 2 2 2 2 1 1 1 1 1 1 1 1 1 2
11 9 9 8 7 7 5 9 9 7 7 8 8 8 9 9 10 10 11 11 11 10 10 10 9 9 8 8 7 7 5 5 4 3 2 2 2 2 1 1 1 0 0 0 1 1 1 1 2
5 2 6 8 8 9 8 9 9 5 7 8 8 8 8 8 9 10 10 10 10 10 9 9 9 9 8 8 8 7 6 4 3 4 4 3 2 2 2 1 1 1 1 1 1 2 2 2 2
2 1 1 3 5 10 11 10 10 5 6 5 5 5 6 7 8 8 8 8 8 9 9 9 9 9 9 8 8 8 7 6 5 5 4 3 2 2 2 2 2 2 2 2 2 2 3 3 3
4 3 3 4 6 8 5 8 8 3 2 4 4 4 4 5 7 8 9 9 9 9 9 9 9 9 9 8 8 8 7 7 7 6 5 4 3 2 2 2 2 2 2 3 3 3 3 4 4
7 7 7 7 8 6 4 9 4 1 1 1 2 2 2 3 5 6 8 9 9 9 9 9 9 9 8 8 8 7 7 5 5 5 5 4 4 3 3 3 3 3 3 3 4 4 4 4 5
5 7 5 5 5 7 7 6 3 1 1 1 1 1 2 3 4 5 6 7 7 8 9 9 9 8 8 8 7 7 7 6 5 5 5 4 4 3 4 4 4 4 4 4 4 4 5 4 5
4 4 4 5 6 8 8 7 4 2 2 1 2 2 2 2 3 4 4 5 5 6 6 7 7 7 6 6 6 5 6 6 5 5 5 5 5 4 4 4 4 4 5 5 5 4 5 5 5
4 5 5 5 6 6 8 5 1 2 2 2 2 2 2 2 3 3 3 3 3 4 5 5 5 5 5 5 5 5 5 5 5 5 5 5 5 5 5 5 5 5 5 5 5 5 6 6 6
5 6 8 7 6 6 8 6 3 1 2 2 1 0 0 1 2 2 3 3 3 3 4 4 4 4 4 4 4 4 4 4 4 4 4 4 5 5 5 5 5 5 5 5 6 6 6 6 6
Wind_Direction
332 194 211 209 208 221 230 215 202 177 178 162 149 184 191 189 217 97 86 113 107 123 117 114 89 84 82 84 85 83 81 78 75 74 72 73 71 70 68 66 65 64 63 63 63 63 61 60 59
180 199 203 212 227 226 225 213 205 192 150 138 150 174 172 176 52 90 119 120 120 120 114 105 95 95 90 88 87 86 83 81 77 74 72 72 72 70 68 65 64 62 63 63 63 62 60 61 60
160 221 207 205 226 234 223 191 191 155 152 170 166 178 193 148 121 124 114 137 130 118 109 101 98 100 94 90 86 86 85 81 77 75 72 70 70 70 68 65 63 63 63 63 62 61 60 60 60
188 179 204 226 228 233 239 183 159 157 169 188 180 157 144 71 105 106 125 141 137 123 111 107 100 100 97 92 87 85 85 81 77 74 71 68 68 68 66 64 61 61 61 62 62 60 60 59 59
202 203 209 225 234 231 231 209 180 186 181 180 189 186 160 121 97 114 132 140 139 125 110 111 106 101 98 94 90 85 84 80 77 74 72 69 66 66 64 62 61 60 60 60 60 59 59 58 57
185 211 223 230 229 227 221 200 191 203 192 179 187 184 166 127 131 130 131 134 130 119 110 108 110 102 98 93 90 86 86 82 78 75 73 70 67 66 63 61 59 59 59 60 59 58 58 56 55
208 213 235 238 233 231 215 189 203 205 203 194 188 182 164 158 142 135 132 123 118 112 108 103 110 108 100 93 90 88 86 84 79 77 74 72 68 66 64 61 58 57 55 56 56 56 55 55 55
213 211 231 230 231 233 190 181 208 214 212 175 193 204 190 164 147 138 131 123 119 114 110 104 104 104 103 100 91 87 84 82 79 75 74 74 70 66 64 62 58 55 53 52 52 53 52 54 53
205 225 235 228 224 217 175 185 182 185 174 177 200 234 87 134 144 142 138 136 133 124 117 110 105 102 102 101 94 90 85 80 80 74 72 71 70 66 64 61 58 56 53 50 48 47 47 51 54
206 230 238 233 227 208 186 202 186 179 196 203 196 171 133 145 155 158 161 161 159 152 140 121 113 110 107 101 97 89 85 81 77 77 76 72 69 65 65 62 57 54 51 49 46 43 40 36 44
208 232 235 232 228 207 197 205 195 204 220 217 205 181 164 163 169 173 175 173 170 164 150 137 122 117 113 105 99 90 83 80 77 77 77 78 72 66 62 59 53 48 43 40 39 38 36 36 36
212 231 235 233 215 205 208 205 211 222 233 225 201 172 167 175 181 183 181 176 169 163 158 143 129 121 113 108 101 96 88 82 77 76 75 75 72 65 60 56 48 43 36 33 32 31 31 32 35
222 228 231 224 204 209 209 220 230 236 232 204 165 168 179 183 187 188 184 174 167 165 161 151 139 130 119 110 102 96 94 88 84 76 73 72 74 70 65 58 50 43 35 33 29 27 24 23 26
216 212 219 223 211 212 219 236 236 240 214 195 186 188 191 191 189 184 182 178 175 172 166 157 151 138 127 119 113 105 98 93 88 78 73 74 72 69 66 62 51 42 34 30 26 23 20 19 21
183 215 236 227 220 213 219 246 234 225 197 199 200 199 197 197 193 192 188 184 180 176 167 161 154 142 135 128 121 111 103 101 91 83 75 73 74 73 69 65 54 41 32 32 30 25 22 20 18
203 227 241 219 207 206 219 251 227 193 192 203 204 202 201 201 199 197 191 186 181 175 169 164 154 150 144 136 126 116 111 104 92 86 81 74 74 74 73 66 54 40 36 33 30 23 16 12 3
219 238 245 235 208 205 223 253 226 184 199 213 212 211 208 206 202 198 193 187 182 177 172 166 162 157 150 143 133 123 112 103 96 91 85 78 72 73 76 68 56 46 42 36 26 22 15 9 2
236 243 249 245 213 216 234 249 243 213 218 228 226 221 216 214 209 198 192 187 182 177 173 170 165 160 151 147 141 128 117 106 98 93 86 85 76 71 77 74 61 52 46 37 27 19 19 13 4
251 247 254 256 229 232 245 254 254 234 228 232 229 225 221 218 207 194 190 185 180 178 176 173 169 167 163 165 165 161 155 139 116 100 98 91 86 81 79 74 71 55 51 42 29 21 16 21 16
243 250 257 264 243 245 261 262 259 238 230 229 227 225 219 209 197 190 188 185 186 184 182 178 177 176 177 175 173 175 164 155 134 114 107 98 91 85 76 76 67 52 46 46 33 24 11 3 9
240 244 254 260 281 244 274 266 241 226 221 226 227 224 215 206 198 191 189 188 187 186 185 182 180 179 179 173 163 154 151 150 154 151 130 110 107 99 86 85 90 71 54 42 18 7 342 325 341
251 247 251 253 258 256 241 276 251 226 223 223 222 218 213 207 200 193 189 189 190 188 184 182 181 180 179 175 177 175 178 180 179 176 167 153 144 138 132 149 142 115 55 305 291 311 304 289 295
255 265 241 242 251 263 237 256 263 214 233 232 223 217 212 205 200 196 192 190 187 184 182 181 181 182 181 182 185 186 190 188 173 169 172 171 166 171 165 192 197 208 254 275 272 273 278 272 273
178 117 189 219 235 252 238 234 262 219 233 238 227 218 210 203 197 195 191 184 182 180 179 179 181 183 184 187 190 195 194 188 181 181 182 185 188 189 187 208 220 232 245 255 262 260 260 260 263
200 210 244 233 227 246 203 226 254 238 242 240 237 221 204 195 190 188 187 185 184 182 181 181 184 186 187 190 194 200 200 196 196 193 193 195 201 209 208 220 234 250 258 257 255 253 254 253 255
211 218 229 249 255 262 212 235 247 144 75 288 259 235 205 194 190 189 189 189 188 186 185 185 187 190 190 193 196 200 200 200 206 206 204 206 213 218 219 226 238 245 250 256 248 248 251 254 254
203 220 244 261 273 264 243 244 253 207 306 306 273 233 216 209 198 192 189 190 189 187 188 189 188 191 192 195 196 199 198 200 204 209 213 218 219 221 224 232 240 243 245 249 255 249 249 253 255
240 209 198 224 246 256 252 243 243 229 255 260 244 234 230 218 198 188 184 186 187 185 184 184 186 190 190 191 193 199 199 202 204 210 215 221 223 220 226 236 242 242 243 246 252 255 251 251 254
194 205 222 230 245 250 262 251 185 225 237 254 241 217 209 199 189 182 178 173 170 172 175 176 180 181 184 187 189 191 193 197 204 211 219 225 227 226 229 234 241 243 242 244 247 252 255 250 252
230 224 212 226 234 234 258 263 67 34 326 299 290 299 195 179 172 170 168 160 156 165 177 179 179 179 182 185 186 186 187 194 206 217 226 230 233 235 237 239 241 245 245 245 246 250 251 250 251
Height
1513 1514 1516 1518 1517 1513 1511 1511 1513 1517 1520 1523 1524 1524 1522 1523 1525 1531 1531 1529 1530 1532 1534 1535 1536 1536 1537 1537 1537 1537 1537 1537 1537 1537 1537 1536 1536 1536 1536 1535 1535 1535 1535 1534 1534 1533 1533 1533 1533
1513 1515 1518 1518 1512 1510 1509 1509 1513 1516 1520 1524 1525 1525 1525 1526 1528 1528 1527 1528 1530 1532 1533 1534 1535 1536 1536 1537 1537 1537 1537 1537 1537 1537 1537 1537 1536 1536 1536 1536 1535 1535 1535 1534 1534 1534 1534 1534 1533
1513 1514 1517 1514 1510 1505 1505 1510 1513 1519 1522 1524 1524 1525 1526 1527 1527 1527 1527 1528 1530 1532 1533 1534 1535 1536 1536 1536 1537 1537 1537 1537 1537 1537 1537 1537 1537 1537 1536 1536 1536 1535 1535 1535 1534 1534 1534 1534 1534
1514 1516 1517 1512 1508 1507 1508 1511 1516 1519 1522 1523 1524 1525 1526 1526 1525 1526 1526 1528 1529 1531 1533 1534 1535 1535 1536 1536 1536 1537 1537 1537 1537 1537 1537 1537 1537 1536 1536 1536 1536 1535 1535 1535 1534 1534 1534 1534 1534
1513 1514 1512 1510 1508 1509 1511 1514 1516 1517 1519 1522 1523 1522 1524 1524 1524 1525 1526 1528 1529 1531 1532 1533 1534 1535 1535 1536 1536 1536 1537 1537 1537 1537 1537 1537 1537 1536 1536 1536 1536 1535 1535 1535 1534 1534 1534 1534 1534
1514 1511 1508 1504 1505 1509 1512 1515 1516 1516 1518 1521 1522 1522 1523 1523 1523 1524 1525 1527 1529 1530 1531 1533 1533 1534 1535 1535 1536 1536 1536 1536 1536 1536 1536 1536 1536 1536 1536 1536 1536 1535 1535 1535 1534 1534 1534 1533 1534
1512 1509 1505 1502 1504 1507 1511 1514 1515 1514 1516 1519 1520 1521 1521 1522 1522 1523 1525 1527 1528 1530 1531 1532 1533 1534 1534 1535 1535 1536 1536 1536 1536 1536 1536 1536 1536 1535 1535 1535 1535 1535 1535 1534 1534 1534 1534 1533 1533
1510 1509 1506 1504 1504 1504 1510 1513 1514 1515 1515 1518 1519 1519 1520 1520 1520 1522 1524 1526 1527 1529 1530 1531 1532 1533 1533 1534 1534 1535 1535 1535 1535 1535 1536 1536 1535 1535 1535 1535 1534 1534 1534 1534 1534 1533 1533 1533 1533
1509 1508 1501 1501 1502 1503 1509 1512 1514 1514 1515 1516 1516 1517 1517 1517 1518 1521 1523 1525 1526 1527 1528 1529 1530 1531 1532 1533 1533 1534 1534 1534 1535 1535 1535 1535 1535 1535 1534 1534 1534 1534 1533 1533 1533 1532 1533 1533 1533
1507 1503 1498 1501 1502 1504 1508 1509 1511 1513 1513 1514 1514 1514 1514 1515 1517 1519 1520 1522 1523 1525 1526 1527 1528 1530 1531 1531 1532 1532 1533 1533 1533 1534 1534 1534 1534 1534 1534 1533 1533 1533 1533 1532 1532 1532 1532 1532 1532
1504 1500 1501 1503 1505 1506 1507 1509 1510 1510 1509 1510 1510 1511 1512 1514 1515 1517 1518 1520 1521 1523 1524 1525 1526 1528 1529 1529 1530 1531 1531 1532 1532 1532 1533 1533 1533 1533 1533 1533 1532 1532 1532 1532 1531 1531 1531 1531 1530
1503 1502 1503 1503 1505 1505 1506 1507 1508 1507 1506 1507 1508 1509 1510 1511 1512 1514 1516 1518 1519 1521 1522 1523 1524 1525 1527 1528 1528 1529 1530 1530 1531 1531 1531 1531 1531 1532 1532 1531 1531 1531 1531 1531 1530 1530 1530 1529 1529
1501 1501 1503 1503 1504 1505 1505 1505 1505 1504 1504 1505 1505 1506 1507 1508 1510 1512 1514 1516 1517 1518 1519 1520 1522 1523 1524 1526 1527 1527 1528 1529 1529 1529 1530 1530 1530 1530 1530 1530 1530 1530 1529 1529 1529 1529 1528 1528 1528
1499 1501 1502 1503 1503 1504 1504 1503 1504 1499 1501 1502 1502 1503 1504 1505 1507 1509 1511 1512 1513 1515 1516 1518 1519 1521 1522 1523 1525 1526 1527 1527 1527 1528 1528 1528 1528 1528 1529 1528 1528 1528 1528 1528 1527 1527 1527 1526 1526
1501 1501 1500 1500 1501 1502 1503 1498 1497 1496 1498 1499 1500 1500 1501 1503 1504 1505 1507 1508 1510 1512 1514 1515 1517 1518 1520 1521 1522 1524 1524 1525 1526 1526 1526 1526 1526 1527 1527 1527 1527 1526 1526 1526 1526 1526 1525 1525 1525
1499 1496 1492 1494 1498 1499 1501 1486 1490 1493 1495 1496 1497 1497 1498 1499 1500 1502 1504 1506 1508 1509 1511 1513 1514 1516 1518 1519 1520 1521 1522 1523 1524 1524 1524 1525 1525 1525 1525 1525 1525 1525 1525 1524 1524 1524 1523 1523 1523
1493 1488 1485 1489 1495 1496 1495 1484 1488 1491 1492 1492 1493 1494 1495 1496 1497 1498 1500 1502 1504 1506 1508 1510 1512 1513 1515 1517 1518 1519 1520 1521 1521 1522 1522 1523 1523 1523 1523 1523 1523 1523 1523 1523 1522 1522 1522 1521 1521
1483 1482 1482 1483 1489 1493 1490 1483 1485 1489 1489 1489 1490 1490 1491 1492 1493 1495 1497 1499 1501 1503 1505 1507 1508 1510 1512 1514 1515 1517 1518 1519 1519 1520 1520 1521 1521 1521 1521 1521 1521 1521 1521 1521 1520 1520 1519 1519 1518
1483 1482 1480 1481 1488 1490 1484 1481 1480 1483 1485 1484 1485 1485 1486 1487 1490 1491 1493 1495 1497 1499 1501 1503 1505 1507 1509 1510 1511 1513 1515 1516 1517 1517 1518 1518 1519 1519 1519 1519 1519 1519 1519 1519 1518 1518 1517 1517 1516
1486 1483 1480 1483 1489 1488 1482 1478 1475 1477 1477 1478 1479 1480 1481 1483 1485 1487 1488 1490 1492 1495 1497 1499 1501 1503 1505 1507 1509 1511 1512 1513 1514 1515 1515 1516 1516 1517 1517 1517 1517 1517 1517 1517 1516 1516 1515 1514 1514
1483 1481 1479 1482 1487 1488 1485 1471 1468 1470 1473 1475 1475 1476 1477 1479 1480 1482 1484 1486 1488 1490 1493 1495 1498 1500 1502 1504 1506 1508 1509 1510 1511 1512 1512 1513 1514 1514 1514 1515 1515 1515 1515 1514 1514 1514 1513 1513 1513
1478 1480 1482 1484 1482 1474 1481 1465 1456 1462 1467 1469 1470 1472 1473 1475 1476 1478 1479 1481 1484 1486 1489 1492 1494 1496 1498 1501 1503 1504 1505 1506 1507 1508 1509 1510 1511 1511 1512 1512 1512 1512 1512 1512 1511 1511 1511 1511 1510
1479 1483 1483 1483 1480 1477 1477 1473 1452 1460 1461 1462 1465 1467 1469 1470 1472 1474 1475 1478 1481 1483 1486 1488 1490 1493 1495 1497 1499 1501 1502 1503 1505 1505 1506 1507 1508 1509 1509 1509 1509 1509 1509 1509 1509 1508 1508 1508 1508
1484 1484 1484 1483 1479 1473 1464 1467 1448 1453 1456 1458 1461 1464 1465 1467 1469 1471 1473 1476 1478 1480 1482 1485 1487 1489 1491 1493 1495 1497 1498 1500 1501 1502 1503 1504 1504 1505 1506 1506 1506 1506 1506 1506 1505 1505 1505 1505 1504
1481 1478 1474 1472 1470 1458 1464 1465 1452 1454 1457 1459 1460 1462 1463 1465 1466 1468 1469 1471 1474 1476 1478 1481 1483 1485 1487 1489 1491 1493 1495 1496 1497 1498 1499 1500 1501 1501 1502 1502 1503 1502 1502 1502 1502 1502 1502 1501 1501
1477 1473 1470 1466 1455 1451 1466 1458 1450 1457 1459 1459 1460 1461 1462 1463 1464 1465 1466 1468 1470 1473 1475 1477 1479 1481 1484 1486 1488 1489 1491 1492 1494 1495 1496 1497 1497 1498 1498 1498 1499 1499 1499 1498 1498 1498 1497 1497 1497
1476 1473 1472 1470 1467 1463 1450 1452 1454 1457 1458 1459 1459 1460 1460 1461 1462 1463 1464 1466 1468 1469 1471 1473 1475 1478 1480 1482 1484 1485 1487 1488 1490 1491 1492 1493 1493 1494 1494 1494 1494 1494 1494 1494 1494 1494 1493 1493 1493
1477 1474 1475 1470 1464 1454 1443 1445 1445 1452 1454 1457 1458 1459 1459 1460 1460 1461 1463 1464 1465 1467 1468 1470 1472 1474 1476 1478 1480 1481 1483 1484 1486 1487 1488 1488 1489 1490 1490 1490 1490 1490 1490 1490 1490 1489 1489 1489 1488
1476 1476 1471 1466 1463 1455 1444 1441 1450 1452 1454 1456 1457 1458 1459 1459 1459 1460 1461 1462 1463 1465 1466 1467 1469 1471 1472 1474 1476 1478 1479 1480 1481 1482 1483 1484 1485 1485 1485 1485 1485 1485 1485 1485 1485 1485 1484 1484 1484
1472 1470 1469 1466 1462 1461 1450 1446 1456 1456 1457 1457 1458 1459 1459 1459 1459 1459 1459 1460 1461 1462 1464 1465 1466 1467 1469 1471 1472 1474 1475 1476 1477 1478 1479 1479 1480 1480 1481 1481 1481 1481 1480 1480 1480 1480 1480 1479 1479